Météo par heure à Kiszewo

Ce jour, 25 Février, Jeudi

Heure Température Précipitation Vent Pression Humidité
00:00 +9°C° 0 mm 2 m/s 767 mmHg 89%
01:00 +8°C° 0 mm 2 m/s 767 mmHg 89%
02:00 +8°C° 0 mm 2 m/s 767 mmHg 90%
03:00 +8°C° 0 mm 2 m/s 767 mmHg 91%
04:00 +8°C° 0 mm 2 m/s 767 mmHg 91%
05:00 +7°C° 0 mm 2 m/s 767 mmHg 92%
06:00 +7°C° 0 mm 2 m/s 767 mmHg 92%
07:00 +7°C° 0 mm 2 m/s 766 mmHg 92%
08:00 +9°C° 0 mm 3 m/s 766 mmHg 86%
09:00 +10°C° 0 mm 3 m/s 766 mmHg 80%
10:00 +12°C° 0 mm 3 m/s 766 mmHg 74%
11:00 +13°C° 0 mm 3 m/s 765 mmHg 70%
12:00 +14°C° 0 mm 4 m/s 765 mmHg 65%
13:00 +17°C° 0 mm 4 m/s 765 mmHg 61%
14:00 +17°C° 0 mm 4 m/s 765 mmHg 62%
15:00 +15°C° 0 mm 4 m/s 764 mmHg 63%
16:00 +16°C° 0 mm 3 m/s 764 mmHg 65%
17:00 +14°C° 0 mm 3 m/s 764 mmHg 70%
18:00 +12°C° 0 mm 3 m/s 764 mmHg 76%
19:00 +11°C° 0 mm 3 m/s 764 mmHg 82%
20:00 +10°C° 0 mm 3 m/s 764 mmHg 84%
21:00 +10°C° 0 mm 3 m/s 765 mmHg 87%
22:00 +10°C° 0 mm 3 m/s 765 mmHg 90%
23:00 +9°C° 0 mm 3 m/s 765 mmHg 91%

Demain, 26 Février, Vendredi

Heure Température Précipitation Vent Pression Humidité
00:00 +9°C° 0 mm 3 m/s 765 mmHg 92%
01:00 +9°C° 0 mm 3 m/s 765 mmHg 93%
02:00 +8°C° 0 mm 3 m/s 765 mmHg 94%
03:00 +7°C° 0 mm 3 m/s 765 mmHg 95%
04:00 +7°C° 0 mm 3 m/s 765 mmHg 96%
05:00 +5°C° 0 mm 3 m/s 765 mmHg 96%
06:00 +5°C° 0 mm 3 m/s 766 mmHg 96%
07:00 +5°C° 0 mm 2 m/s 766 mmHg 96%
08:00 +5°C° 0 mm 3 m/s 766 mmHg 90%
09:00 +7°C° 0 mm 3 m/s 766 mmHg 84%
10:00 +6°C° 0 mm 4 m/s 766 mmHg 78%
11:00 +7°C° 0 mm 4 m/s 766 mmHg 74%
12:00 +7°C° 0 mm 5 m/s 766 mmHg 70%
13:00 +8°C° 0 mm 5 m/s 766 mmHg 66%
14:00 +8°C° 0 mm 5 m/s 766 mmHg 66%
15:00 +8°C° 0 mm 4 m/s 765 mmHg 66%
16:00 +7°C° 0 mm 4 m/s 765 mmHg 67%
17:00 +6°C° 0 mm 4 m/s 765 mmHg 72%
18:00 +5°C° 0 mm 3 m/s 766 mmHg 77%
19:00 +4°C° 0 mm 3 m/s 766 mmHg 82%
20:00 +4°C° 0 mm 3 m/s 766 mmHg 82%
21:00 +3°C° 0 mm 4 m/s 766 mmHg 82%
22:00 +3°C° 0 mm 4 m/s 766 mmHg 82%
23:00 +3°C° 0 mm 4 m/s 766 mmHg 84%

Après-demain, 27 Février, Samedi

Heure Température Précipitation Vent Pression Humidité
00:00 +1°C° 0 mm 4 m/s 766 mmHg 86%
01:00 +1°C° 0 mm 4 m/s 766 mmHg 88%
02:00 +1°C° 0 mm 4 m/s 766 mmHg 89%
03:00 0°C° 0 mm 5 m/s 766 mmHg 91%
04:00 0°C° 0 mm 5 m/s 766 mmHg 93%
05:00 0°C° 0 mm 5 m/s 766 mmHg 92%
06:00 +1°C° 0 mm 5 m/s 766 mmHg 90%
07:00 +1°C° 0 mm 5 m/s 766 mmHg 89%
08:00 +1°C° 0 mm 5 m/s 767 mmHg 86%
09:00 +2°C° 0 mm 5 m/s 767 mmHg 84%
10:00 +3°C° 0 mm 4 m/s 768 mmHg 81%
11:00 +4°C° 0 mm 4 m/s 768 mmHg 78%
12:00 +5°C° 0 mm 4 m/s 769 mmHg 75%
13:00 +6°C° 0 mm 4 m/s 769 mmHg 72%
14:00 +6°C° 0 mm 4 m/s 769 mmHg 69%
15:00 +6°C° 0 mm 4 m/s 769 mmHg 66%
16:00 +8°C° 0 mm 3 m/s 769 mmHg 63%
17:00 +5°C° 0 mm 3 m/s 769 mmHg 68%
18:00 +4°C° 0 mm 3 m/s 770 mmHg 73%
19:00 +2°C° 0 mm 3 m/s 770 mmHg 78%
20:00 +3°C° 0 mm 2 m/s 770 mmHg 81%
21:00 +2°C° 0 mm 2 m/s 770 mmHg 84%
22:00 +1°C° 0 mm 2 m/s 770 mmHg 86%
23:00 +1°C° 0 mm 2 m/s 771 mmHg 87%

28 Février, Dimanche

Heure Température Précipitation Vent Pression Humidité
00:00 +1°C° 0 mm 2 m/s 771 mmHg 88%
01:00 -1°C° 0 mm 2 m/s 771 mmHg 88%
02:00 -1°C° 0 mm 2 m/s 771 mmHg 89%
03:00 -1°C° 0 mm 2 m/s 771 mmHg 89%
04:00 -1°C° 0 mm 2 m/s 770 mmHg 89%
05:00 -1°C° 0 mm 2 m/s 770 mmHg 89%
06:00 -1°C° 0 mm 2 m/s 770 mmHg 89%
07:00 -1°C° 0 mm 2 m/s 770 mmHg 89%
08:00 +1°C° 0 mm 2 m/s 770 mmHg 84%
09:00 +3°C° 0 mm 2 m/s 771 mmHg 78%
10:00 +4°C° 0 mm 2 m/s 771 mmHg 73%
11:00 +6°C° 0 mm 2 m/s 771 mmHg 68%
12:00 +7°C° 0 mm 2 m/s 771 mmHg 63%
13:00 +8°C° 0 mm 2 m/s 770 mmHg 57%
14:00 +8°C° 0 mm 2 m/s 770 mmHg 60%
15:00 +9°C° 0 mm 1 m/s 770 mmHg 62%
16:00 +8°C° 0 mm 1 m/s 770 mmHg 64%
17:00 +7°C° 0 mm 1 m/s 770 mmHg 70%
18:00 +6°C° 0 mm 1 m/s 770 mmHg 76%
19:00 +5°C° 0 mm 1 m/s 770 mmHg 81%
20:00 +5°C° 0 mm 1 m/s 771 mmHg 82%
21:00 +4°C° 0 mm 0 m/s 771 mmHg 82%
22:00 +4°C° 0 mm 0 m/s 772 mmHg 83%
23:00 +4°C° 0 mm 0 m/s 772 mmHg 83%

1 Mars, Lundi

Heure Température Précipitation Vent Pression Humidité
00:00 +5°C° 0 mm 1 m/s 772 mmHg 83%
01:00 +5°C° 0 mm 1 m/s 772 mmHg 82%
02:00 +4°C° 0 mm 1 m/s 772 mmHg 84%
03:00 +4°C° 0 mm 1 m/s 772 mmHg 85%
04:00 +3°C° 0 mm 1 m/s 772 mmHg 86%
05:00 +3°C° 0 mm 1 m/s 772 mmHg 86%
06:00 +3°C° 0 mm 1 m/s 773 mmHg 86%
07:00 +3°C° 0 mm 1 m/s 773 mmHg 86%
08:00 +4°C° 0 mm 1 m/s 773 mmHg 80%
09:00 +5°C° 0 mm 1 m/s 774 mmHg 75%
10:00 +7°C° 0 mm 1 m/s 774 mmHg 69%
11:00 +7°C° 0 mm 2 m/s 774 mmHg 66%
12:00 +7°C° 0 mm 2 m/s 774 mmHg 62%
13:00 +8°C° 0 mm 2 m/s 774 mmHg 58%
14:00 +8°C° 0 mm 2 m/s 774 mmHg 59%
15:00 +8°C° 0 mm 2 m/s 774 mmHg 59%
16:00 +8°C° 0 mm 2 m/s 773 mmHg 59%
17:00 +7°C° 0 mm 2 m/s 773 mmHg 65%
18:00 +6°C° 0 mm 2 m/s 773 mmHg 70%
19:00 +4°C° 0 mm 2 m/s 773 mmHg 76%
20:00 +4°C° 0 mm 2 m/s 774 mmHg 78%
21:00 +3°C° 0 mm 2 m/s 774 mmHg 80%
22:00 +3°C° 0 mm 2 m/s 774 mmHg 83%
23:00 +2°C° 0 mm 2 m/s 774 mmHg 84%

2 Mars, Mardi

Heure Température Précipitation Vent Pression Humidité
00:00 +2°C° 0 mm 2 m/s 774 mmHg 86%
01:00 +1°C° 0 mm 2 m/s 774 mmHg 88%
02:00 +1°C° 0 mm 2 m/s 774 mmHg 89%
03:00 +1°C° 0 mm 2 m/s 774 mmHg 89%
04:00 +1°C° 0 mm 2 m/s 774 mmHg 89%
05:00 +1°C° 0 mm 2 m/s 774 mmHg 89%
06:00 -1°C° 0 mm 2 m/s 774 mmHg 88%
07:00 -1°C° 0 mm 2 m/s 774 mmHg 88%
08:00 +2°C° 0 mm 2 m/s 774 mmHg 81%
09:00 +4°C° 0 mm 2 m/s 774 mmHg 74%
10:00 +4°C° 0 mm 3 m/s 774 mmHg 67%
11:00 +5°C° 0 mm 3 m/s 773 mmHg 64%
12:00 +7°C° 0 mm 3 m/s 773 mmHg 61%
13:00 +9°C° 0 mm 3 m/s 773 mmHg 58%
14:00 +8°C° 0 mm 3 m/s 773 mmHg 59%
15:00 +8°C° 0 mm 3 m/s 772 mmHg 60%
16:00 +8°C° 0 mm 3 m/s 772 mmHg 61%
17:00 +7°C° 0 mm 2 m/s 771 mmHg 66%
18:00 +6°C° 0 mm 2 m/s 771 mmHg 71%
19:00 +4°C° 0 mm 2 m/s 771 mmHg 76%
20:00 +4°C° 0 mm 2 m/s 771 mmHg 77%
21:00 +4°C° 0 mm 2 m/s 771 mmHg 78%
22:00 +3°C° 0 mm 2 m/s 771 mmHg 80%
23:00 +3°C° 0 mm 2 m/s 770 mmHg 80%
Voir plus

Nous avons besoin de votre consentement

Meteoprog et ses fournisseurs de services peuvent stocker et accéder à des données personnelles telles que des cookies, des identifiants d'appareils ou d'autres technologies similaires sur votre appareil et traiter ces données pour personnaliser le contenu et les publicités, ainsi que pour fournir des fonctionnalités de médias sociaux et analyser le trafic.

  • Stocker et/ou accéder à des informations sur votre appareil

    Des cookies, des identifiants d'appareils ou d'autres informations peuvent être stockés ou accessibles sur votre appareil aux fins indiquées ci-dessus.

  • Annonces et contenus personnalisés, mesure des annonces et des contenus, connaissance de l'audience et développement de produits

    Les annonces et le contenu peuvent être personnalisés en fonction d'un profil. D'autres données peuvent être ajoutées pour mieux personnaliser les annonces et le contenu. Les performances des publicités et du contenu peuvent être mesurées. Il est possible d'obtenir des informations sur le public qui a vu les publicités et le contenu. Ces données peuvent être utilisées pour développer ou améliorer l'expérience de l'utilisateur, les systèmes et les logiciels.

En cliquant sur "J'accepte", vous autorisez l'utilisation de cookies, des identifiants d'appareils, des balises web ou d'autres technologies similaires. Vos paramètres peuvent être modifiés dans le navigateur de votre appareil.

Dans certains cas, des intérêts légitimes peuvent être invoqués plutôt qu'un consentement. Vous pouvez en savoir plus à ce sujet dans notre Politique de confidentialité et de cookies.